Weather History for Ithaca, NY

Change the Weather History Date:

Thursday, April 12, 2012

  Actual Average Record
Temperature  
Mean Temperature 42 °F -  
Max Temperature 50 °F 49 °F 81 °F (1977)
Min Temperature 33 °F 29 °F 18 °F (1926)
Degree Days  
Heating Degree Days 24    
Moisture  
Dew Point 32 °F    
Average Humidity 76    
Maximum Humidity 100    
Minimum Humidity 43    
Precipitation  
Precipitation 0.00 in - - ()
Sea Level Pressure  
Sea Level Pressure 30.11 in    
Wind  
Wind Speed 8 mph (NW)    
Max Wind Speed 18 mph    
Max Gust Speed 23 mph    
Visibility 10 miles    
Events Rain    
Averages and records for this station are not official NWS values.
T = Trace of Precipitation, MM = Missing Value Source: NWS Daily Summary

Daily Weather History Graph

Daily Weather History Graph

Search for Another Location

Airport:

Trip Planner

Search our weather history database for the weather conditions in past years. The results will help you decide how hot, cold, wet, or windy it might be!

Date:

Astronomy

Apr. 12, 2012 Rise Set
Actual Time 6:28 AM EDT 7:44 PM EDT
Civil Twilight 5:59 AM EDT 8:13 PM EDT
Nautical Twilight 5:24 AM EDT 8:48 PM EDT
Astronomical Twilight 4:48 AM EDT 9:25 PM EDT
Moon 1:34 AM EDT (4/12) 11:17 AM EDT (4/12)
Length of Visible Light 14h 14m
Length of Day
13h 15m
Waning Gibbous, 59% of the Moon is Illuminated
Apr 12
Waning Gibbous
Apr 13
Last Quarter
Apr 21
New
Apr 29
First Quarter
May 5
Full

Hourly Weather History & Observations

Time (EDT) Temp. Windchill Dew Point Humidity Pressure Visibility Wind Dir Wind Speed Gust Speed Precip Events Conditions
12:56 AM 36.9 °F 31.4 °F 34.0 °F 89% 30.07 in 10.0 mi NW 6.9 mph - N/A   Overcast
1:18 AM 37.4 °F 31.4 °F 33.8 °F 87% 30.04 in 10.0 mi NW 8.1 mph - N/A   Overcast
1:56 AM 36.9 °F 33.1 °F 34.0 °F 89% 30.06 in 10.0 mi NW 4.6 mph - N/A   Overcast
2:49 AM 37.4 °F 32.8 °F 35.6 °F 93% 30.03 in 10.0 mi NW 5.8 mph - 0.00 in Rain Light Rain
3:09 AM 37.4 °F 32.1 °F 35.6 °F 93% 30.03 in 10.0 mi NW 6.9 mph - 0.00 in Rain Light Rain
3:33 AM 35.6 °F 30.7 °F 33.8 °F 93% 30.03 in 10.0 mi NW 5.8 mph - 0.00 in Rain Light Rain
3:56 AM 34.9 °F 29.0 °F 32.9 °F 92% 30.06 in 10.0 mi NW 6.9 mph - 0.00 in   Mostly Cloudy
4:56 AM 34.9 °F 32.0 °F 34.0 °F 97% 30.07 in 10.0 mi NNW 3.5 mph - N/A   Overcast
5:56 AM 34.0 °F 28.0 °F 32.9 °F 96% 30.09 in 10.0 mi NW 6.9 mph - N/A   Overcast
6:16 AM 33.8 °F 27.0 °F 33.8 °F 100% 30.07 in 10.0 mi NW 8.1 mph - N/A   Mostly Cloudy
6:56 AM 34.9 °F 28.3 °F 32.0 °F 89% 30.11 in 10.0 mi NW 8.1 mph - N/A   Mostly Cloudy
7:56 AM 36.9 °F 30.1 °F 32.9 °F 86% 30.13 in 10.0 mi NW 9.2 mph - N/A   Mostly Cloudy
8:56 AM 38.8 °F 31.2 °F 34.9 °F 86% 30.15 in 10.0 mi NW 12.7 mph - N/A   Mostly Cloudy
9:56 AM 41.9 °F 35.0 °F 34.9 °F 76% 30.16 in 10.0 mi NW 12.7 mph - N/A   Mostly Cloudy
10:56 AM 43.0 °F 37.2 °F 34.0 °F 71% 30.17 in 10.0 mi NW 10.4 mph - N/A   Mostly Cloudy
11:56 AM 46.9 °F - 32.9 °F 58% 30.17 in 10.0 mi NW 16.1 mph - N/A   Mostly Cloudy
12:56 PM 50.0 °F - 32.0 °F 50% 30.15 in 10.0 mi NNW 13.8 mph - N/A   Mostly Cloudy
2:56 PM 50.0 °F - 28.0 °F 43% 30.15 in 10.0 mi WNW 18.4 mph 23.0 mph N/A   Mostly Cloudy
5:56 PM 46.9 °F - 26.1 °F 44% 30.14 in 10.0 mi NNW 11.5 mph - N/A   Scattered Clouds
6:56 PM 45.9 °F 41.2 °F 27.1 °F 48% 30.15 in 10.0 mi NNW 9.2 mph - N/A   Mostly Cloudy
7:56 PM 41.0 °F 36.4 °F 26.1 °F 55% 30.16 in 10.0 mi NNW 6.9 mph - N/A   Clear
8:56 PM 39.9 °F 36.7 °F 26.1 °F 58% 30.17 in 10.0 mi North 4.6 mph - N/A   Clear
9:56 PM 37.9 °F 34.4 °F 26.1 °F 62% 30.19 in 10.0 mi North 4.6 mph - N/A   Clear